Tracking 19920 objects as of 15-Oct-2019
HD Live streaming from Space Station
objects crossing your sky now

GLOBALSTAR M092

Track GLOBALSTAR M092 now!
10-day predictions
GLOBALSTAR M092 is classified as:


NORAD ID: 38043
Int'l Code: 2011-080D
Perigee: 1,420.4 km
Apogee: 1,421.1 km
Inclination: 52.0 °
Period: 114.1 minutes
Semi major axis: 7791 km
RCS: 5.0785 m2 (large)
Launch date: December 28, 2011
Source: Globalstar (GLOB)
Launch site: TYURATAM MISSILE AND SPACE COMPLEX (TTMTR)
aabbcc
Your satellite tracking list
Your tracking list is empty




NASA's NSSDC Master Catalog

Two Line Element Set (TLE):
1 38043U 11080D   19287.56947071 -.00000109  00000-0 -31072-4 0  9993
2 38043  52.0082 284.6658 0000401 111.5008  44.8657 12.62266371360411
Source of the keplerian elements: AFSPC